Weather History for Naples, FL

Change the Weather History Date:

Tuesday, January 8, 2013

  Actual Average Record
Temperature  
Mean Temperature 77 °F 64 °F  
Max Temperature 85 °F 75 °F 86 °F (1974)
Min Temperature 68 °F 54 °F 37 °F (1970)
Degree Days  
Heating Degree Days 0 4  
Month to date heating degree days 0 26  
Since 1 July heating degree days 49 104  
Cooling Degree Days 12 3  
Month to date cooling degree days 66 24  
Year to date cooling degree days 66 24  
Growing Degree Days 26 (Base 50)    
Moisture  
Dew Point 69 °F    
Average Humidity 78    
Maximum Humidity 100    
Minimum Humidity 55    
Precipitation  
Precipitation 0.00 in 0.06 in 2.13 in (1945)
Month to date precipitation 0.11 0.45  
Year to date precipitation 0.11 0.45  
Snow  
Snow 0.00 in - - ()
Month to date snowfall 0.0  
Since 1 July snowfall 0.0  
Snow Depth 0.00 in    
Sea Level Pressure  
Sea Level Pressure 30.12 in    
Wind  
Wind Speed 8 mph (ENE)    
Max Wind Speed 16 mph    
Max Gust Speed 20 mph    
Visibility 9 miles    
Events      
T = Trace of Precipitation, MM = Missing Value Source: NWS Daily Summary

Daily Weather History Graph

Daily Weather History Graph

Search for Another Location

Airport:

Trip Planner

Search our weather history database for the weather conditions in past years. The results will help you decide how hot, cold, wet, or windy it might be!

Date:

Astronomy

Jan. 08, 2013 Rise Set
Actual Time 7:15 AM EST 5:52 PM EST
Civil Twilight 6:50 AM EST 6:17 PM EST
Nautical Twilight 6:22 AM EST 6:45 PM EST
Astronomical Twilight 5:54 AM EST 7:13 PM EST
Moon 3:49 AM EST (1/8) 2:52 PM EST (1/8)
Length of Visible Light 11h 26m
Length of Day
10h 36m
Waning Crescent, 14% of the Moon is Illuminated
Jan 8
Waning Crescent
Jan 11
New
Jan 18
First Quarter
Jan 26
Full
Feb 3
Last Quarter

Hourly Weather History & Observations

Time (EST) Temp. Heat Index Dew Point Humidity Pressure Visibility Wind Dir Wind Speed Gust Speed Precip Events Conditions
12:53 AM 69.1 °F - 68.0 °F 96% 30.10 in 10.0 mi ENE 10.4 mph - N/A   Overcast
1:53 AM 69.1 °F - 68.0 °F 96% 30.10 in 10.0 mi ENE 12.7 mph - N/A   Overcast
2:53 AM 69.1 °F - 68.0 °F 96% 30.09 in 9.0 mi NE 10.4 mph - N/A   Overcast
3:53 AM 69.1 °F - 68.0 °F 96% 30.09 in 7.0 mi ENE 8.1 mph - N/A   Overcast
4:53 AM 68.0 °F - 68.0 °F 100% 30.08 in 7.0 mi ENE 9.2 mph - N/A   Overcast
5:53 AM 68.0 °F - 68.0 °F 100% 30.11 in 7.0 mi ENE 8.1 mph - N/A   Overcast
6:53 AM 68.0 °F - 68.0 °F 100% 30.12 in 5.0 mi NE 5.8 mph - N/A   Overcast
7:53 AM 69.1 °F - 69.1 °F 100% 30.15 in 5.0 mi ENE 9.2 mph - N/A   Overcast
8:53 AM 71.1 °F - 69.1 °F 93% 30.18 in 6.0 mi ENE 6.9 mph - N/A   Overcast
9:28 AM 73.4 °F - 69.8 °F 88% 30.19 in 8.0 mi ENE 4.6 mph - N/A   Scattered Clouds
10:53 AM 80.1 °F 83.2 °F 70.0 °F 71% 30.17 in 10.0 mi ESE 9.2 mph - N/A   Scattered Clouds
11:53 AM 81.0 °F 83.8 °F 68.0 °F 65% 30.16 in 10.0 mi SE 9.2 mph - N/A   Scattered Clouds
12:53 PM 81.0 °F 83.3 °F 66.9 °F 62% 30.13 in 10.0 mi Variable 3.5 mph - N/A   Clear
1:53 PM 84.0 °F 86.5 °F 66.9 °F 56% 30.10 in 10.0 mi ENE 6.9 mph - N/A   Scattered Clouds
2:53 PM 81.0 °F 83.8 °F 68.0 °F 65% 30.10 in 10.0 mi West 8.1 mph - N/A   Mostly Cloudy
3:00 PM 80.6 °F 83.9 °F 69.8 °F 70% 30.10 in 10.0 mi West 8.1 mph - N/A   Mostly Cloudy
3:07 PM 78.8 °F - 69.8 °F 74% 30.10 in 10.0 mi West 6.9 mph - N/A   Mostly Cloudy
3:53 PM 81.0 °F 84.1 °F 69.1 °F 67% 30.10 in 10.0 mi West 6.9 mph - N/A   Mostly Cloudy
4:00 PM 80.6 °F 83.9 °F 69.8 °F 70% 30.10 in 10.0 mi WNW 6.9 mph - N/A   Mostly Cloudy
4:53 PM 81.0 °F 83.3 °F 66.9 °F 62% 30.11 in 10.0 mi ESE 8.1 mph - N/A   Overcast
5:53 PM 79.0 °F - 68.0 °F 69% 30.12 in 10.0 mi ESE 5.8 mph - N/A   Mostly Cloudy
6:53 PM 78.1 °F - 68.0 °F 71% 30.12 in 10.0 mi ESE 6.9 mph - N/A   Mostly Cloudy
7:53 PM 77.0 °F - 69.1 °F 76% 30.13 in 10.0 mi East 10.4 mph - N/A   Mostly Cloudy
8:53 PM 75.0 °F - 70.0 °F 84% 30.14 in 10.0 mi East 6.9 mph - N/A   Scattered Clouds
9:53 PM 73.9 °F - 70.0 °F 87% 30.15 in 10.0 mi East 8.1 mph - N/A   Clear
10:53 PM 73.0 °F - 70.0 °F 90% 30.15 in 9.0 mi East 9.2 mph - N/A   Clear